EST,Max TemperatureF,Mean TemperatureF,Min TemperatureF,Max Dew PointF,MeanDew PointF,Min DewpointF,Max Humidity, Mean Humidity, Min Humidity, Max Sea Level PressureIn, Mean Sea Level PressureIn, Min Sea Level PressureIn, Max VisibilityMiles, Mean VisibilityMiles, Min VisibilityMiles, Max Wind SpeedMPH, Mean Wind SpeedMPH, Max Gust SpeedMPH,PrecipitationIn, CloudCover, Events, WindDirDegrees
2012-12-1,65,56,46,46,43,38,73,63,46,30.27,30.21,30.15,10,10,10,13,6,18,0.00,5,,177
2012-12-2,65,60,56,58,53,46,84,73,63,30.16,30.12,30.08,10,10,7,20,12,30,0.03,8,Rain,199
2012-12-3,72,66,60,57,54,50,81,69,55,30.17,30.12,30.07,10,10,10,14,11,21,0.00,4,,189
2012-12-4,62,54,46,60,55,43,100,87,65,30.24,30.09,30.02,10,7,0,18,10,23,0.85,8,Rain-Thunderstorm,216
2012-12-5,55,44,32,48,37,32,100,81,46,30.35,30.28,30.23,10,6,0,12,3,,0.00,0,Fog,23
2012-12-6,50,41,32,49,40,30,100,85,66,30.22,30.07,29.97,10,8,1,9,5,,0.03,6,Rain,92
2012-12-7,57,54,50,56,54,50,100,99,94,30.04,29.92,29.85,10,3,1,9,5,,0.80,8,Rain,182
2012-12-8,59,54,49,57,53,48,100,91,76,30.00,29.91,29.84,10,7,2,10,7,,0.22,8,Rain-Thunderstorm,279
2012-12-9,64,56,49,57,54,49,100,91,64,29.97,29.87,29.72,10,5,1,17,7,29,0.39,8,Rain-Thunderstorm,133
2012-12-10,57,44,31,55,36,27,94,87,81,29.99,29.80,29.71,10,7,3,12,7,17,0.15,8,Rain-Snow,297
2012-12-11,37,32,26,27,23,22,88,72,53,30.28,30.14,29.99,10,10,10,8,5,,0.00,4,,249
2012-12-12,43,32,22,28,24,20,92,73,46,30.41,30.35,30.26,10,10,10,6,2,,0.00,0,,77
2012-12-13,49,36,23,28,24,20,90,69,35,30.43,30.36,30.30,10,10,10,8,3,,0.00,0,,89
2012-12-14,56,43,30,30,26,23,80,55,28,30.34,30.25,30.13,10,10,10,9,3,,0.00,0,,175
2012-12-15,57,50,42,51,42,30,93,74,60,30.14,29.95,29.82,10,10,10,20,8,23,0.06,7,Rain,163
2012-12-16,62,58,54,55,53,50,95,83,65,29.81,29.74,29.68,10,10,10,15,11,24,0.00,3,,197
2012-12-17,59,52,45,54,50,43,100,89,77,29.74,29.65,29.54,10,10,3,23,9,30,0.19,7,Rain-Thunderstorm,207
2012-12-18,50,44,38,41,36,33,93,78,58,29.94,29.82,29.70,10,10,7,15,11,28,0.01,5,Rain,229
2012-12-19,53,44,35,41,37,33,96,73,55,30.07,29.98,29.88,10,10,10,12,7,,0.00,1,,83
2012-12-20,55,44,31,50,39,24,94,77,61,29.84,29.55,29.37,10,8,2,30,20,43,0.67,7,Rain-Snow-Thunderstorm,196
2012-12-21,36,32,26,24,20,16,80,66,55,30.21,29.98,29.75,10,10,10,23,19,39,0.00,4,Snow,267
2012-12-22,40,28,17,18,17,14,89,64,39,30.33,30.23,30.10,10,10,10,12,5,,0.00,0,,225
2012-12-23,54,42,29,43,30,17,93,64,42,30.08,29.97,29.91,10,10,10,12,7,,0.00,3,,183
2012-12-24,50,41,32,49,44,28,100,96,83,30.05,29.84,29.78,10,4,0,15,5,,0.08,8,Fog-Rain,235
2012-12-25,36,34,31,32,28,26,93,78,68,30.15,30.04,29.88,10,10,6,18,9,28,0.03,8,Rain,34
2012-12-26,34,32,30,33,30,25,100,91,80,30.03,29.70,29.46,10,7,1,20,15,29,0.63,8,Rain-Snow,341
2012-12-27,32,30,29,28,26,25,86,83,77,30.20,30.13,30.03,10,10,10,10,6,,0.00,8,,301
2012-12-28,36,32,29,32,30,25,100,88,75,30.14,29.94,29.78,10,7,0,8,5,,0.08,8,Rain-Snow,70
2012-12-29,32,28,24,32,30,19,100,95,78,30.32,29.89,29.74,10,6,2,17,6,25,0.10,8,Snow,301
2012-12-30,33,24,16,25,20,14,91,79,64,30.52,30.43,30.33,10,10,10,12,6,,0.00,4,,233
2012-12-31,36,31,26,34,28,22,100,83,70,30.33,30.19,30.09,10,9,3,9,5,,0.11,5,Rain,194